#timestamp,LO_Frequency,Hit,StdDev 
1611493215.4,286046995.3,N
1611493235.3,286046993.5,N
1611493255.1,286046994.6,N
1611493256.0,286046994.6,N
1611493275.8,286046998.7,N
1611493295.7,286047004.0,N
1611493315.5,286047007.4,N
1611493335.3,286047005.9,N
1611493355.2,286047006.5,N
1611493375.0,286047006.5,N
1611493375.9,286047006.5,N
1611493395.8,286047005.1,N
1611493415.6,286047004.9,N
1611493435.4,286047003.3,N
1611493455.3,286047002.0,N
1611493475.1,286046999.2,N
1611493495.9,286046996.9,N
1611493515.7,286046995.6,N
1611493535.5,286046994.2,N
1611493555.4,286046997.8,N
1611493575.2,286046997.9,N
1611493595.0,286046992.8,N
1611493596.0,286046992.8,N
1611493615.8,286046994.2,N
1611493635.6,286046991.9,N
1611493655.5,286046992.3,N
1611493675.3,286046997.7,N
1611493695.1,286046997.2,N
1611493715.9,286046994.8,N
1611493735.7,286046991.7,N
1611493755.6,286046993.1,N
1611493775.4,286046991.8,N
1611493795.2,286046994.5,N
1611493815.1,286046996.2,N
1611493816.0,286046996.2,N
1611493835.8,286046997.2,N
1611493855.7,286046999.2,N
1611493875.5,286047001.2,N
1611493895.3,286046998.2,N
1611493915.2,286046996.9,N
1611493935.9,286046996.9,N
1611493955.7,286046990.1,N
1611493975.6,286046990.7,N
1611493995.4,286046994.4,N
1611494015.3,286046995.4,N
1611494035.1,286046998.7,N
1611494036.0,286046998.7,N
1611494055.8,286047000.9,N
1611494075.7,286046998.4,N
1611494095.5,286047000.8,N
1611494115.3,286047000.8,N
1611494135.2,286046998.4,N
1611494155.0,286046998.9,N
1611494155.9,286046998.9,N
1611494175.8,286047000.9,N
1611494195.6,286047001.6,N
1611494215.5,286047002.2,N
1611494235.3,286047001.0,N
1611494255.1,286046999.2,N
1611494275.9,286046996.2,N
1611494295.7,286046996.7,N
1611494315.5,286047001.4,N
1611494335.4,286046996.9,N
1611494355.2,286046997.9,N
1611494375.1,286046996.7,N
1611494376.0,286046996.7,N
1611494395.8,286046998.4,N
1611494415.6,286046999.1,N
1611494435.5,286046997.5,N
1611494455.3,286046991.6,N
1611494475.2,286046990.0,Y
1611494495.9,286046987.0,P
1611494515.7,286046992.7,N
1611494535.6,286046991.0,N
1611494555.4,286046992.5,N
1611494575.2,286046996.4,N
1611494595.1,286046994.7,N
1611494596.0,286046994.7,N
1611494615.8,286046991.0,N
1611494635.7,286046990.0,Y
1611494655.5,286046998.4,P
1611494675.3,286046999.4,N
1611494695.2,286047000.3,N
1611494715.0,286047000.3,N
1611494715.9,286047000.3,N
1611494735.8,286047003.1,N
1611494755.6,286047001.8,N
1611494775.4,286047005.5,N
1611494795.3,286047005.1,N
1611494815.1,286047004.6,N
1611494835.8,286047005.7,N
1611494855.7,286047007.2,N
1611494875.5,286047004.9,N
1611494895.4,286047004.3,N
1611494915.2,286046999.4,N
1611494935.0,286046995.6,N
1611494935.9,286046995.6,N
1611494955.8,286046994.7,N
1611494975.6,286047000.6,N
1611494995.5,286047003.9,N
1611495015.3,286047010.4,N
1611495035.1,286047008.6,N
1611495055.9,286047006.6,N
1611495075.7,286047004.7,N
1611495095.5,286047007.9,N
1611495115.4,286047013.1,N
1611495135.2,286047016.2,Y
1611495155.1,286047013.4,P
1611495156.0,286047013.4,N
1611495175.8,286047015.5,P
1611495195.6,286047011.0,N
1611495215.5,286047004.5,N
1611495235.3,286047007.1,N
1611495255.2,286047002.9,N
1611495275.9,286047003.0,N
1611495295.7,286047003.9,N
1611495315.6,286047007.4,N
1611495335.4,286047003.2,N
1611495355.2,286047002.5,N
1611495375.1,286047001.6,N
1611495376.0,286047001.6,N
1611495395.8,286047005.5,N
1611495415.7,286047007.5,N
1611495435.5,286047009.0,N
1611495455.3,286047007.0,N
1611495475.2,286047002.1,N
1611495495.0,286047003.5,N
1611495495.9,286047003.5,N
1611495515.7,286047000.1,N
1611495535.6,286047000.4,N
1611495555.4,286047000.4,N
1611495575.3,286047002.5,N
1611495595.1,286047001.7,N
1611495596.0,286047001.7,N
1611495615.8,286047001.7,N
1611495635.7,286047003.2,N
1611495655.5,286046999.8,N
1611495675.4,286046998.5,N
1611495695.2,286046997.4,N
1611495715.0,286046991.9,N
1611495715.9,286046991.9,N
1611495735.8,286046991.9,N
1611495755.6,286046996.2,N
1611495775.4,286046996.2,N
1611495795.3,286046995.1,N
1611495815.1,286046997.7,N
1611495835.9,286046996.3,N
1611495855.7,286046990.4,N
1611495875.5,286046992.6,N
1611495895.4,286046989.8,N
1611495915.2,286046993.6,N
1611495935.1,286047002.6,N
1611495936.0,286047002.6,N
1611495955.8,286046999.2,N
1611495975.6,286046998.0,N
1611495995.5,286046994.2,N
1611496015.3,286046991.0,N
1611496035.1,286046994.4,N
1611496055.9,286046990.9,N
1611496075.7,286046987.4,N
1611496095.6,286046987.9,N
1611496115.4,286046983.9,Y
1611496135.2,286046985.8,P
1611496155.1,286046986.6,N
1611496156.0,286046986.6,N
1611496175.8,286046988.4,N
1611496195.7,286046985.6,Y
1611496215.5,286046999.3,P
1611496235.3,286047002.7,N
1611496255.2,286046996.9,N
1611496275.0,286046998.4,N
1611496275.9,286046998.4,N
1611496295.8,286046996.0,N
1611496315.6,286046990.1,N
1611496335.4,286046990.6,N
1611496355.3,286046995.6,N
1611496375.1,286046997.0,N
1611496395.8,286047001.8,N
1611496415.7,286047002.3,N
1611496435.5,286046997.2,N
1611496455.4,286046992.1,N
1611496475.2,286046990.9,N
1611496495.0,286046987.0,N
1611496495.9,286046987.0,N
1611496515.8,286046986.3,N
1611496535.6,286046984.3,N
1611496555.5,286046985.0,N
1611496575.3,286046985.7,N
1611496595.1,286046987.7,N
1611496615.9,286046990.0,N
1611496635.7,286046990.6,N
1611496655.5,286046993.0,N
1611496675.4,286046993.0,N
1611496695.2,286046990.2,N
1611496715.1,286046987.5,N
1611496716.0,286046987.5,N
1611496735.8,286046987.9,N
1611496755.6,286046988.1,N
1611496775.5,286046988.9,N
1611496795.3,286046991.3,N
